Regional Weather Roundup
Issued by NWS Cleveland, OH

Home | Current Version | Previous Version | Text Only | Print | Product List | Glossary On
Versions: 1 2 3 4 5 6 7 8 9 10 11 12 13 14 15 16 17 18 19 20 21 22 23 24 25 26 27 28 29 30 31 32 33 34 35 36 37 38 39 40 41 42 43 44 45 46 47 48 49 50
000
ASUS41 KCLE 070512
RWRCLE
OHIO REGIONAL WEATHER ROUNDUP
NATIONAL WEATHER SERVICE WILMINGTON, OH
1200 AM EST SUN FEB 07 2016

NOTE: "FAIR" INDICATES FEW OR NO CLOUDS BELOW 12,000 FEET WITH NO
SIGNIFICANT WEATHER AND/OR OBSTRUCTIONS TO VISIBILITY.

OHZ001>008-015>018-024>027-034-035-043-044-070600-
   NORTHWEST OHIO

CITY           SKY/WX    TMP DP  RH WIND       PRES   REMARKS
DEFIANCE       MOCLDY    31  24  75 S3        30.15F
FINDLAY        FAIR      28  22  78 S8        30.16F WCI  20
TOLEDO EXPRESS FAIR      29  23  78 SW3       30.15F
TOLEDO EXEC    FAIR      29  22  75 S6        30.17F WCI  23
LIMA           FAIR      33  24  69 S10       30.16F WCI  25
$$

OHZ009>014-019>023-028>033-038-089-070600-
   NORTHEAST OHIO

CITY           SKY/WX    TMP DP  RH WIND       PRES   REMARKS
CLE-HOPKINS    FAIR      31  17  56 S6        30.20F WCI  25
CLE-LAKEFRONT  FAIR      35  19  52 SW9       30.18F WCI  28
CUY CO. ARPT   NOT AVBL
LORAIN-ELYRIA  FAIR      29  19  66 SW6       30.18F WCI  23
ASHTABULA      MOCLDY    31  21  66 SW7       30.17F WCI  24
AKRON-CANTON   FAIR      28  16  60 SW7       30.17F WCI  21
WOOSTER        FAIR      28  18  66 SW5       30.18F WCI  23
MANSFIELD      FAIR      28  19  69 SW7       30.16F WCI  21
YOUNGSTOWN     FAIR      30  16  56 SW7       30.17F WCI  23
$$

OHZ042-051>053-060>062-070>072-077>081-070600-
  SOUTHWEST OHIO

CITY           SKY/WX    TMP DP  RH WIND       PRES   REMARKS
CINC-COVINGTON FAIR      34  23  64 S7        30.21F WCI  28
CINC-LUNKEN    FAIR      28  25  88 CALM      30.24F
HAMILTON       FAIR      26  22  84 CALM      30.22F
DAYTON         FAIR      35  24  64 S8        30.19F WCI  29
WRIGHT-PAT AFB FAIR      27  22  81 SE2       30.19F
DAYTON GENERAL FAIR      33  21  61 S6        30.19F WCI  28
WILMINGTON     FAIR      31  23  72 S6        30.20F WCI  25
$$

OHZ036-037-039>041-045>050-054>059-063>069-073>076-082>088-070600-
  CENTRAL AND SOUTHEAST OHIO

CITY           SKY/WX    TMP DP  RH WIND       PRES   REMARKS
COLUMBUS       FAIR      29  19  66 CALM      30.21S
OSU AIRPORT    FAIR      29  20  69 S5        30.20S WCI  24
BOLTON FIELD   FAIR      30  22  73 SW5       30.21S WCI  25
RICKENBACK AFB FAIR      31  21  68 S6        30.21S WCI  25
NEWARK         FAIR      26  19  74 CALM      30.20F
MARION         FAIR      27  18  69 S8        30.18F WCI  19
LANCASTER      FAIR      26  20  77 CALM      30.21F
ZANESVILLE     FAIR      25  17  72 CALM      30.21F
NEW PHILLY     FAIR      24  19  81 SE5       30.21S WCI  18
$$



USA.gov is the U.S. government's official web portal to all federal, state and local government web resources and services.